• In Netherlands
  • List of Countries
  • For 7 days
  • Water Temperature
  • Satellite Maps
  • Weather Map
  • Weather Widgets
  • user-avatar
    Login

    Hourly Weather Burgas

    Today, 22 February, Wednesday

    Time Temperature Precipitation Wind Pressure Humidity
    00:00 +4°C° 0.1 mm 3 mps 758 mmHg 80%
    01:00 +4°C° 0.1 mm 4 mps 758 mmHg 81%
    02:00 +4°C° 0 mm 4 mps 757 mmHg 80%
    03:00 +4°C° 0.2 mm 4 mps 758 mmHg 80%
    04:00 +4°C° 0.2 mm 4 mps 758 mmHg 80%
    05:00 +4°C° 0.2 mm 4 mps 758 mmHg 79%
    06:00 +4°C° 0 mm 4 mps 758 mmHg 79%
    07:00 +4°C° 0 mm 4 mps 758 mmHg 79%
    08:00 +5°C° 0 mm 5 mps 758 mmHg 79%
    09:00 +6°C° 0 mm 5 mps 759 mmHg 77%
    10:00 +8°C° 0 mm 5 mps 759 mmHg 74%
    11:00 +10°C° 0 mm 6 mps 760 mmHg 72%
    12:00 +12°C° 0 mm 5 mps 760 mmHg 69%
    13:00 +12°C° 0 mm 5 mps 760 mmHg 67%
    14:00 +13°C° 0 mm 4 mps 760 mmHg 65%
    15:00 +12°C° 0 mm 3 mps 760 mmHg 69%
    16:00 +12°C° 0 mm 2 mps 760 mmHg 73%
    17:00 +12°C° 0 mm 1 mps 760 mmHg 77%
    18:00 +10°C° 0 mm 2 mps 760 mmHg 79%
    19:00 +9°C° 0 mm 2 mps 761 mmHg 82%
    20:00 +8°C° 0 mm 3 mps 761 mmHg 84%
    21:00 +7°C° 0 mm 3 mps 761 mmHg 84%
    22:00 +7°C° 0 mm 3 mps 761 mmHg 83%
    23:00 +6°C° 0 mm 4 mps 761 mmHg 83%

    Tomorrow, 23 February, Thursday

    Time Temperature Precipitation Wind Pressure Humidity
    00:00 +6°C° 0 mm 4 mps 761 mmHg 83%
    01:00 +6°C° 0 mm 4 mps 760 mmHg 83%
    02:00 +6°C° 0 mm 4 mps 760 mmHg 83%
    03:00 +5°C° 0 mm 4 mps 760 mmHg 83%
    04:00 +5°C° 0 mm 4 mps 760 mmHg 83%
    05:00 +5°C° 0 mm 4 mps 760 mmHg 83%
    06:00 +5°C° 0 mm 4 mps 760 mmHg 83%
    07:00 +6°C° 0 mm 4 mps 760 mmHg 83%
    08:00 +6°C° 0 mm 4 mps 760 mmHg 82%
    09:00 +8°C° 0 mm 5 mps 760 mmHg 77%
    10:00 +10°C° 0 mm 5 mps 760 mmHg 73%
    11:00 +13°C° 0 mm 5 mps 760 mmHg 68%
    12:00 +14°C° 0 mm 5 mps 760 mmHg 65%
    13:00 +15°C° 0 mm 6 mps 759 mmHg 63%
    14:00 +16°C° 0 mm 6 mps 759 mmHg 61%
    15:00 +15°C° 0 mm 5 mps 759 mmHg 65%
    16:00 +14°C° 0 mm 4 mps 759 mmHg 69%
    17:00 +14°C° 0 mm 4 mps 759 mmHg 73%
    18:00 +12°C° 0 mm 4 mps 759 mmHg 77%
    19:00 +10°C° 0 mm 5 mps 759 mmHg 81%
    20:00 +9°C° 0 mm 5 mps 760 mmHg 84%
    21:00 +9°C° 0 mm 5 mps 760 mmHg 86%
    22:00 +9°C° 0 mm 5 mps 760 mmHg 87%
    23:00 +8°C° 0 mm 6 mps 760 mmHg 88%

    Day after tomorrow, 24 February, Friday

    Time Temperature Precipitation Wind Pressure Humidity
    00:00 +8°C° 0 mm 6 mps 759 mmHg 89%
    01:00 +8°C° 0 mm 6 mps 759 mmHg 91%
    02:00 +8°C° 0 mm 6 mps 759 mmHg 92%
    03:00 +8°C° 0 mm 6 mps 759 mmHg 92%
    04:00 +8°C° 0 mm 6 mps 758 mmHg 92%
    05:00 +8°C° 0 mm 7 mps 758 mmHg 92%
    06:00 +9°C° 0 mm 7 mps 758 mmHg 91%
    07:00 +9°C° 0 mm 7 mps 758 mmHg 91%
    08:00 +9°C° 0 mm 7 mps 758 mmHg 90%
    09:00 +10°C° 0 mm 7 mps 758 mmHg 86%
    10:00 +12°C° 0 mm 8 mps 758 mmHg 81%
    11:00 +13°C° 0 mm 8 mps 758 mmHg 76%
    12:00 +15°C° 0 mm 8 mps 758 mmHg 73%
    13:00 +15°C° 0 mm 8 mps 758 mmHg 71%
    14:00 +16°C° 0 mm 8 mps 757 mmHg 68%
    15:00 +15°C° 0 mm 7 mps 757 mmHg 71%
    16:00 +15°C° 0 mm 7 mps 757 mmHg 73%
    17:00 +14°C° 0 mm 6 mps 757 mmHg 76%
    18:00 +13°C° 0 mm 6 mps 758 mmHg 78%
    19:00 +11°C° 0 mm 7 mps 758 mmHg 81%
    20:00 +10°C° 0 mm 7 mps 758 mmHg 84%
    21:00 +10°C° 0 mm 7 mps 758 mmHg 85%
    22:00 +10°C° 0 mm 7 mps 758 mmHg 86%
    23:00 +9°C° 0 mm 7 mps 758 mmHg 86%

    25 February, Saturday

    Time Temperature Precipitation Wind Pressure Humidity
    00:00 +10°C° 0 mm 7 mps 758 mmHg 87%
    01:00 +10°C° 0 mm 7 mps 758 mmHg 88%
    02:00 +10°C° 0 mm 8 mps 758 mmHg 88%
    03:00 +10°C° 0 mm 8 mps 758 mmHg 88%
    04:00 +10°C° 0 mm 8 mps 757 mmHg 88%
    05:00 +10°C° 0 mm 9 mps 757 mmHg 89%
    06:00 +10°C° 0.1 mm 8 mps 757 mmHg 88%
    07:00 +11°C° 0.1 mm 8 mps 757 mmHg 87%
    08:00 +11°C° 0.1 mm 8 mps 758 mmHg 87%
    09:00 +12°C° 0.2 mm 8 mps 758 mmHg 84%
    10:00 +13°C° 0.2 mm 8 mps 758 mmHg 81%
    11:00 +14°C° 0.2 mm 7 mps 759 mmHg 79%
    12:00 +14°C° 1 mm 7 mps 759 mmHg 81%
    13:00 +14°C° 1 mm 7 mps 760 mmHg 82%
    14:00 +12°C° 1 mm 7 mps 760 mmHg 84%
    15:00 +10°C° 2.2 mm 7 mps 761 mmHg 86%
    16:00 +8°C° 2.2 mm 6 mps 762 mmHg 88%
    17:00 +7°C° 2.2 mm 6 mps 763 mmHg 90%
    18:00 +6°C° 0.6 mm 5 mps 764 mmHg 90%
    19:00 +5°C° 0.6 mm 5 mps 764 mmHg 89%
    20:00 +5°C° 0.6 mm 5 mps 765 mmHg 89%
    21:00 +5°C° 0.5 mm 4 mps 766 mmHg 89%
    22:00 +5°C° 0.5 mm 4 mps 767 mmHg 89%
    23:00 +4°C° 0.5 mm 4 mps 767 mmHg 90%

    26 February, Sunday

    Time Temperature Precipitation Wind Pressure Humidity
    00:00 +4°C° 0.2 mm 4 mps 768 mmHg 90%
    01:00 +4°C° 0.2 mm 4 mps 768 mmHg 90%
    02:00 +4°C° 0.2 mm 4 mps 768 mmHg 90%
    03:00 +4°C° 0 mm 4 mps 768 mmHg 90%
    04:00 +4°C° 0 mm 4 mps 768 mmHg 89%
    05:00 +4°C° 0 mm 4 mps 768 mmHg 89%
    06:00 +4°C° 0 mm 4 mps 769 mmHg 88%
    07:00 +4°C° 0 mm 4 mps 769 mmHg 88%
    08:00 +4°C° 0 mm 4 mps 769 mmHg 87%
    09:00 +5°C° 0 mm 5 mps 769 mmHg 83%
    10:00 +6°C° 0 mm 5 mps 769 mmHg 79%
    11:00 +7°C° 0 mm 5 mps 769 mmHg 75%
    12:00 +7°C° 0 mm 5 mps 769 mmHg 73%
    13:00 +7°C° 0 mm 5 mps 768 mmHg 71%
    14:00 +7°C° 0 mm 4 mps 768 mmHg 69%
    15:00 +7°C° 0 mm 4 mps 767 mmHg 71%
    16:00 +7°C° 0 mm 4 mps 767 mmHg 72%
    17:00 +6°C° 0 mm 4 mps 767 mmHg 74%
    18:00 +5°C° 0 mm 3 mps 767 mmHg 77%
    19:00 +4°C° 0 mm 3 mps 766 mmHg 81%
    20:00 +4°C° 0 mm 2 mps 766 mmHg 85%
    21:00 +4°C° 0 mm 2 mps 766 mmHg 85%
    22:00 +4°C° 0 mm 2 mps 766 mmHg 86%
    23:00 +4°C° 0 mm 1 mps 766 mmHg 86%

    27 February, Monday

    Time Temperature Precipitation Wind Pressure Humidity
    00:00 +4°C° 0 mm 1 mps 765 mmHg 86%
    01:00 +4°C° 0 mm 1 mps 765 mmHg 87%
    02:00 +4°C° 0 mm 1 mps 765 mmHg 87%
    03:00 +4°C° 0 mm 1 mps 764 mmHg 88%
    04:00 +4°C° 0 mm 1 mps 764 mmHg 88%
    05:00 +4°C° 0 mm 1 mps 764 mmHg 89%
    06:00 +4°C° 0 mm 1 mps 764 mmHg 87%
    07:00 +5°C° 0 mm 1 mps 764 mmHg 86%
    08:00 +6°C° 0 mm 1 mps 764 mmHg 85%
    09:00 +8°C° 0 mm 1 mps 764 mmHg 80%
    10:00 +10°C° 0 mm 1 mps 764 mmHg 75%
    11:00 +11°C° 0 mm 1 mps 764 mmHg 69%
    12:00 +12°C° 0 mm 1 mps 764 mmHg 67%
    13:00 +13°C° 0 mm 1 mps 763 mmHg 65%
    14:00 +14°C° 0 mm 1 mps 763 mmHg 63%
    15:00 +14°C° 0 mm 1 mps 763 mmHg 67%
    16:00 +13°C° 0 mm 1 mps 763 mmHg 71%
    17:00 +12°C° 0 mm 1 mps 763 mmHg 75%
    18:00 +11°C° 0 mm 1 mps 763 mmHg 80%
    19:00 +10°C° 0 mm 1 mps 764 mmHg 84%
    20:00 +8°C° 0 mm 1 mps 764 mmHg 88%
    21:00 +8°C° 0 mm 1 mps 764 mmHg 89%
    22:00 +7°C° 0 mm 1 mps 764 mmHg 89%
    23:00 +7°C° 0 mm 1 mps 764 mmHg 90%
    Show more